HO-68 - Orbit

View from above orbital plane
View from above orbital plane
View from above satellite
View from above satellite

Ground track
Ground track

The orbit data is extracted from the following two-line orbital elements,

1 36122U 09072B   13144.25974403 -.00000044  00000-0  00000+0 0  5768
2 36122 100.3078 201.9150 0007862 050.3833 309.7989 13.16304394165267
Epoch (UTC): 24 May 2013 06:14:01
Eccentricity: 0.0007862
inclination: 100.3078°
perigee height: 1193 km
apogee height: 1205 km
right ascension of ascending node: 201.9150°
argument of perigee: 50.3833°
revolutions per day: 13.16304394
mean anomaly at epoch: 309.7989°
orbit number at epoch: 16526

The dashed part of the orbit path shows where the satellite is in the earth's shadow,  

Developed and maintained by Chris Peat, Heavens-Above GmbH. Please read the updated FAQ before sending e-mail. Imprint. DLR